Location: Bailleul
(50.3375°N, 2.8513°E)
Time: 11:44:04
(UTC+00:00)

BREEZE-M DEB (TANK) - Pass Details

Date: 16 June 2021
Orbit: 319 x 12038 km, 49.6° (Epoch: 27 July)

Event Time Altitude Azimuth Distance (km) Brightness Sun altitude
Rises 21:34:29 0° 221° (SW) 2,072 4.9 -10.5°
Reaches altitude 10° 21:36:05 10° 207° (SSW) 1,355 3.8 -10.6°
Maximum altitude 21:38:27 30° 141° (SE) 896 2.6 -10.8°
Drops below altitude 10° 21:42:55 10° 79° (E) 2,626 5.4 -11.1°
Sets 21:47:28 0° 71° (ENE) 4,728 6.8 -11.5°
